Tracking 19644 objects as of 25-Apr-2019
HD Live streaming from Space Station
objects crossing your sky now

SL-16 DEB

Track SL-16 DEB now!
10-day predictions


NORAD ID: 22604
Int'l Code: 1993-016N
Perigee: 858.7 km
Apogee: 1,109.7 km
Inclination: 71.0 °
Period: 104.6 minutes
Semi major axis: 7355 km
RCS: 0.1198 m2 (medium)
Launch date: March 26, 1993
Source: Commonwealth of Independent States (former USSR) (CIS)
Launch site: TYURATAM MISSILE AND SPACE COMPLEX (TTMTR)

Note: This is SATELLITE DEBRIS
aabbcc
Your satellite tracking list
Your tracking list is empty




NASA's NSSDC Master Catalog

Two Line Element Set (TLE):
1 22604U 93016N   19114.42982569 -.00000020 +00000-0 +21859-4 0  9996
2 22604 070.9947 229.0567 0170621 198.0186 230.2685 13.76303297309798
Source of the keplerian elements: AFSPC